Overview Statistics Trail Chart Weather Telemetry Raw packets
 

This is the latest recevied weather packets stored in our database for station/object W0WFX-2. If no packets are shown the sender has not sent any weather packets the latest 10 day(s).

<< 64 65 66 67 68 69 70 >>
Time Temp. Humidity Pressure Rain* Wind** Luminosity Snow
1788195603 35.56° C 41% 1015.1 hPa 0 mm - 710 W/m² -
1788195321 35° C 41% 1015.1 hPa 0 mm - 700 W/m² -
1788195000 35.56° C 40% 1015.1 hPa 0 mm - 696 W/m² -
1788194695 35° C 43% 1015.2 hPa 0 mm - 684 W/m² -
1788194390 34.44° C 43% 1015.3 hPa 0 mm - 661 W/m² -
1788194086 35° C 42% 1015.3 hPa 0 mm - 652 W/m² -
1788193784 35° C 42% 1015.5 hPa 0 mm - 652 W/m² -
1788193480 34.44° C 43% 1015.2 hPa 0 mm - 647 W/m² -
1788193178 33.33° C 43% 1015.5 hPa 0 mm - 618 W/m² -
1788192875 33.33° C 45% 1015.3 hPa 0 mm - 563 W/m² -
1788192571 32.78° C 43% 1015.2 hPa 0 mm - 544 W/m² -
1788192270 32.78° C 44% 1015.3 hPa 0 mm - 538 W/m² -
1788191970 32.78° C 45% 1015.3 hPa 0 mm - 519 W/m² -
1788191665 31.67° C 47% 1015.2 hPa 0 mm - 504 W/m² -
1788191361 31.67° C 48% 1015.5 hPa 0 mm - 456 W/m² -
1788191057 32.22° C 46% 1015.2 hPa 0 mm - 378 W/m² -
1788190755 31.67° C 46% 1015.2 hPa 0 mm - 413 W/m² -
1788190451 32.22° C 45% 1015.3 hPa 0 mm - 439 W/m² -
1788190147 32.22° C 45% 1015.5 hPa 0 mm - 413 W/m² -
1788189843 31.67° C 46% 1015.5 hPa 0 mm - 413 W/m² -
1788189538 31.11° C 47% 1015.6 hPa 0 mm - 490 W/m² -
1788189237 30.56° C 48% 1015.2 hPa 0 mm - 453 W/m² -
1788188932 30.56° C 50% 1015.2 hPa 0 mm - 385 W/m² -
1788188628 30.56° C 50% 1015.3 hPa 0 mm - 364 W/m² -
1788188326 30° C 52% 1015.3 hPa 0 mm - 261 W/m² -

* Rain latest hour (hover to see other rain measurements)
** Current wind speed in m/s (hover to see current wind gust speed)